Regional Weather Roundup
Issued by NWS

Home | Current Version | Previous Version | Text Only | Print | Product List | Glossary Off
Versions: 1 2 3 4 5 6 7 8 9 10 11 12 13 14 15 16 17 18 19 20 21 22 23 24 25 26 27

000
ASUS45 KSLC 230310
RWRUT

UTAH REGIONAL WEATHER ROUNDUP
NATIONAL WEATHER SERVICE SALT LAKE CITY UT
800 PM MST SUN JAN 22 2017

UTZ001>011-023>025-230400-

NORTHERN UTAH

CITY           SKY/WX    TMP DP  RH WIND       PRES   REMARKS
BRIGHAM CITY     N/A     33  32  94 S10       29.77S WCI  25
HILL AFB       FLURRIES  33  31  94 SE10      29.74S WCI  24
LOGAN          LGT SNOW  31  30  96 SE5       29.75S VSB 1   WCI  26
OGDEN          MIX PCPN  32  32 100 SE5       29.74F WCI  27
SALT LAKE CITY CLOUDY    37  28  70 S20G29    29.73F WCI  27
TOOELE VALLEY  CLOUDY    41  30  65 S21       29.72F
WENDOVER       CLOUDY    30  28  93 S3        29.71S
HEBER CITY     LGT SNOW  28  27  93 CALM      29.77F
WEST JORDAN    CLOUDY    35  32  89 S18       29.75F WCI  24

$$

UTZ011>015-024>027-230400-

CENTRAL/NORTHEAST UTAH

CITY           SKY/WX    TMP DP  RH WIND       PRES   REMARKS
PROVO AIRPORT  CLOUDY    35  26  69 S13       29.78F WCI  26
MOAB/CANYONLAN LGT SNOW  33  32  96 SE9       29.94F FOG     WCI  25
DELTA          CLOUDY    34  30  86 S21G29    29.74F WCI  22
PRICE          LGT SNOW  26  26 100 E5        29.88F FOG     WCI  20
RICHFIELD      CLEAR     37  27  65 SE7       29.80F WCI  32
ROOSEVELT      CLOUDY    25  23  93 CALM      29.94F FOG
VERNAL         LGT SNOW  22  20  92 NW3       29.90F FOG

$$

UTZ013>016-019>022-027-230400-

SOUTHERN UTAH

CITY           SKY/WX    TMP DP  RH WIND       PRES   REMARKS
BRYCE CANYON   LGT SNOW  24  22  91 SE13      29.93S VSB 3/4 WCI  12
CEDAR CITY     CLOUDY    39  25  57 SW26G43   29.79F WCI  28
MILFORD        CLOUDY    34  30  85 S22       29.79F WCI  22
ST GEORGE      CLOUDY    41  34  75 E13       29.98F
HANKSVILLE     CLOUDY    36  32  87 MISG      29.96S
KANAB            N/A     34  34 100 CALM      30.04R
BLANDING       CLOUDY    29  29 100 SE7       30.12F WCI  22

$$

REGIONAL REPORTS     COLORADO/ARIZONA

CITY           SKY/WX    TMP DP  RH WIND       PRES   REMARKS
CRAIG, CO      FLURRIES  27  19  72 E9        29.91F WCI  18
GRAND JUNCTION CLOUDY    34  27  75 SE14      29.95F HAZE    WCI  25
RIFLE, CO      LGT SNOW  30  27  88 W7        29.96F FOG     WCI  23
MONTROSE, CO   LGT SNOW  30  27  88 S6        30.00F FOG     WCI  24
CORTEZ, CO     LGT SNOW  29  25  85 VRB3      30.07F FOG
COLORADO CITY  FLURRIES  34  34 100 E8        30.00F WCI  27
PAGE, AZ       CLOUDY    39  31  72 NW3       29.99S
GRAND CANYON   LGT SNOW  30  29  96 S13G21    30.02S VSB 3/4 WCI  20
KINGMAN, AZ    CLOUDY    44  29  55 SE14      29.98F
FLAGSTAFF, AZ  CLOUDY    28  27  96 SW10      30.06S WCI  19

$$

REGIONAL REPORTS    NEVADA/IDAHO/WYOMING

CITY           SKY/WX    TMP DP  RH WIND       PRES   REMARKS
LAS VEGAS, NV  CLOUDY    46  41  82 SE6       29.88F
ELY, NY        FLURRIES  30  26  85 S26G37    29.64F WCI  16
ELKO, NV       CLOUDY    34  30  85 VRB3      29.62F
POCATELLO, ID  CLOUDY    35  27  72 S23G31    29.67S WCI  23
BURLEY, ID     LGT SNOW  34  29  82 SW15      29.66S WCI  24
FORT BRIDGER,  LGT SNOW  17  17 100 N8        29.76F WCI   7
EVANSTON, WY   LGT SNOW  20  16  84 E8        29.72F FOG     WCI  10
ROCK SPRINGS,  CLOUDY    27  17  66 S18       29.75F WCI  14

$$




USA.gov is the U.S. government's official web portal to all federal, state and local government web resources and services.